Weather in La Vega

Dominican Republic     19°13′43″N   70°31′31″W
temp.,
°C
wind,
m/s
gust,
m/s
humid.,
%
clouds,
%
prec.,
mm/h
press.,
hPa
HPBL,
m
12 may, wed
wed1223:00+22se379679 0.0 1019235
02:00+22ese2696100 0.1 1017246
05:00+21se2598100 0.1 1017171
08:00+24se488567 0.3 1018586
11:00+30ese685223 0.1 10181479
14:00+33ese78410 0.1 10151972
17:00+32ese78430 0.0 10141490
20:00+25ese487315 0.0 1017407
13 may, thu
thu1323:00+24ese4883100 0.0 1019654
02:00+21ese379538 0.1 1017287
05:00+20se259715 0.0 1017123
08:00+24se47731 0.0 1018596
11:00+31ese67441 0.0 10171503
14:00+35ese66310 0.0 10142152
17:00+33e98400 0.0 10121782
20:00+26e59654 0.0 1015477
14 may, fri
fri1423:00+22ese36865 0.0 1017178
02:00+20ese249523 0.0 101694
05:00+19se23959 0.0 101660
08:00+24ese35740 0.0 1017401
11:00+31ese56430 0.0 10161463
14:00+36ese76310 0.0 10122563
17:00+33ese774131 0.0 10121867
20:00+26ese47637 0.0 1014299
15 may, sat
sat1523:00+22ese22815 0.0 101643
02:00+20ene01910 0.0 101513
05:00+19ese11922 0.0 101614
08:00+24ese35681 0.0 1016368
11:00+32ese56384 0.0 10151481
14:00+36ese65283 0.0 10112475
17:00+33e874068 0.0 10111926
20:00+26ese476318 0.3 1014374
16 may, sun
sun1623:00+22ese12859 0.1 101643
02:00+21ese119293 0.1 101516
05:00+20ese119621 0.0 101517
08:00+24ese237718 0.0 1017414
11:00+32ese55415 0.0 10161571
14:00+36e652895 0.0 10132944
17:00+29e6753100 0.9 10131564
20:00+22wsw1192100 8.6 101739